EHI
0 0 0 0 0 0 0 0 0 0 0 0 0 0 0 0 0 0 0 0 0 0 0 0 0 0 0 0 0 0 0 0 0 0 0 0 0 0 0 0 0 0 0
0 0 0 0 0 0 0 0 0 0 0 0 0 0 0 0 0 0 0 0 0 0 0 0 0 0 0 0 0 0 0 0 0 0 0 0 0 0 0 0 0 0 0
0 0 0 0 0 0 0 0 0 0 0 0 0 0 0 0 0 0 0 0 0 0 0 0 0 0 0 0 0 0 0 0 0 0 0 0 0 0 0 0 0 0 0
0 0 0 0 0 0 0 0 0 0 0 0 0 0 0 0 0 0 0 0 0 0 0 0 0 0 0 0 0 0 0 0 0 0 0 0 0 0 0 0 0 0 0
0 0 0 0 0 0 0 0 0 0 0 0 0 0 0 0 0 0 0 0 0 0 0 0 0 0 0 0 0 0 0 0 0 0 0 0 0 0 0 0 0 0 0
0 0 0 0 0 0 0 0 0 0 0 0 0 0 0 0 0 0 0 0 0 0 0 0 0 0 0 0 0 0 0 0 0 0 0 0 0 0 0 0 0 0 0
0 0 0 0 0 0 0 0 0 0 0 0 0 0 0 0 0 0 0 0 0 0 0 0 0 0 0 0 0 0 0 0 0 0 0 0 0 0 0 0 0 0 0
0 0 0 0 0 0 0 0 0 0 0 0 0 0 0 0 0 0 0 0 0 0 0 0 0 0 0 0 0 0 0 0 0 0 0 0 0 0 0 0 0 0 0
0 0 0 0 0 0 0 0 0 0 0 0 0 0 0 0 0 0 0 0 0 0 0 0 0 0 0 0 0 0 0 0 0 0 0 0 0 0 0 0 0 0 0
0 0 0 0 0 0 0 0 0 0 0 0 0 0 0 0 0 0 0 0 0 0 0 0 0 0 0 0 0 0 0 0 0 0 0 0 0 0 0 0 0 0 0
0 0 0 0 0 0 0 0 0 0 0 0 0 0 0 0 0 0 0 0 0 0 0 0 0 0 0 0 0 0 0 0 0 0 0 0 0 0 0 0 0 0 0
0 0 0 0 0 0 0 0 0 0 0 0 0 0 0 0 0 0 0 0 0 0 0 0 0 0 0 0 0 0 0 0 0 0 0 0 0 0 0 0 0 0 0
0 0 0 0 0 0 0 0 0 0 0 0 0 0 0 0 0 0 0 0 0 0 0 0 0 0 0 0 0 0 0 0 0 0 0 0 0 0 0 0 0 0 0
0 0 0 0 0 0 0 0 0 0 0 0 0 0 0 0 0 0 0 0 0 0 0 0 0 0 0 0 0 0 0 0 0 0 0 0 0 0 0 0 0 0 0
0 0 0 0 0 0 0 0 0 0 0 0 0 0 0 0 0 0 0 0 0 0 0 0 0 0 0 0 0 0 0 0 0 0 0 0 0 0 0 0 0 0 0
0 0 0 0 0 0 0 0 0 0 0 0 0 0 0 0 0 0 0 0 0 0 0 0 0 0 0 0 0 0 0 0 0 0 0 0 0 0 0 0 0 0 0
0 0 0 0 0 0 0 0 0 0 0 0 0 0 0 0 0 0 0 0 0 0 0 0 0 0 0 0 0 0 0 0 0 0 0 0 0 0 0 0 0 0 0
0 0 0 0 0 0 0 0 0 0 0 0 0 0 0 0 0 0 0 0 0 0 0 0 0 0 0 0 0 0 0 0 0 0 0 0 0 0 0 0 0 0 0
0 0 0 0 0 0 0 0 0 0 0 0 0 0 0 0 0 0 0 0 0 0 0 0 0 0 0 0 0 0 0 0 0 0 0 0 0 0 0 0 0 0 0
0 0 0 0 0 0 0 0 0 0 0 0 0 0 0 0 0 0 0 0 0 0 0 0 0 0 0 0 0 0 0 0 0 0 0 0 0 0 0 0 0 0 0
0 0 0 0 0 0 0 0 0 0 0 0 0 0 0 0 0 0 0 0 0 0 0 0 0 0 0 0 0 0 0 0 0 0 0 0 0 0 0 0 0 0 0
0 0 0 0 0 0 0 0 0 0 0 0 0 0 0 0 0 0 0 0 0 0 0 0 0 0 0 0 0 0 0 0 0 0 0 0 0 0 0 0 0 0 0
0 0 0 0 0 0 0 0 0 0 0 0 0 0 0 0 0 0 0 0 0 0 0 0 0 0 0 0 0 0 0 0 0 0 0 0 0 0 0 0 0 0 0
0 0 0 0 0 0 0 0 0 0 0 0 0 0 0 0 0 0 0 0 0 0 0 0 0 0 0 0 0 0 0 0 0 0 0 0 0 0 0 0 0 0 0
0 0 0 0 0 0 0 0 0 0 0 0 0 0 0 0 0 0 0 0 0 0 0 0 0 0 0 0 0 0 0 0 0 0 0 0 0 0 0 0 0 0 0
0 0 0 0 0 0 0 0 0 0 0 0 0 0 0 0 0 0 0 0 0 0 0 0 0 0 0 0 0 0 0 0 0 0 0 0 0 0 0 0 0 0 0
Wind_Speed
1 1 1 2 2 3 3 2 2 2 2 2 2 2 2 2 2 3 3 3 4 4 5 4 4 4 5 6 6 5 5 5 3 2 4 4 5 6 5 5 4 5 6
2 1 2 2 3 3 3 3 2 2 2 2 2 2 2 1 1 1 1 1 2 2 3 4 4 4 4 5 5 5 3 3 3 3 2 3 3 4 5 4 4 5 3
7 4 3 3 3 3 3 3 3 3 2 1 2 2 2 1 1 0 0 1 1 1 2 3 3 3 4 4 5 5 6 5 3 4 4 3 4 3 2 2 3 3 3
6 5 4 4 4 3 3 4 4 4 3 2 2 2 2 1 0 0 0 1 2 2 1 1 2 2 2 3 4 4 4 5 4 3 4 5 3 3 3 2 2 2 2
8 7 6 5 4 3 4 4 5 5 5 4 3 2 2 1 0 1 2 2 2 3 3 2 2 1 2 2 3 3 3 4 4 3 3 4 3 4 4 4 2 1 1
7 7 5 5 4 4 4 4 5 5 5 5 4 4 3 2 1 2 2 2 2 3 5 4 3 2 2 2 2 2 2 2 3 3 2 2 2 3 4 5 3 3 2
9 9 8 6 5 5 4 4 5 5 4 5 5 4 4 3 2 1 1 2 2 2 4 4 4 3 3 3 2 1 1 1 1 1 1 1 2 1 2 3 3 2 1
8 8 8 7 6 6 5 5 5 4 4 5 4 4 4 3 2 3 2 2 2 2 3 4 4 4 4 4 3 2 2 2 2 2 2 1 2 1 1 1 2 2 2
8 8 7 6 6 6 5 5 5 5 4 4 4 4 4 4 4 3 3 2 2 2 4 4 4 4 4 4 4 3 3 3 4 3 3 3 3 3 2 2 1 2 2
7 7 6 6 5 5 4 4 5 5 4 3 3 4 4 4 4 4 4 4 4 4 4 5 5 5 5 5 4 4 4 5 5 4 5 5 4 3 4 3 2 1 1
8 7 6 5 5 5 5 5 5 4 4 4 4 4 4 4 4 4 4 4 4 4 5 5 5 6 6 5 5 6 6 7 6 6 6 6 5 4 4 4 4 3 2
6 6 6 5 5 5 5 5 4 4 4 4 4 4 4 4 5 5 4 4 5 5 5 5 6 6 6 6 7 7 7 7 7 7 7 6 5 6 5 4 4 4 3
6 5 5 6 6 5 5 5 4 4 4 4 4 4 4 4 4 4 4 5 5 5 5 6 6 6 6 7 7 7 8 8 7 7 7 6 5 6 4 5 4 3 4
7 6 6 6 6 6 6 5 5 4 5 4 4 4 4 4 4 4 4 5 5 5 5 6 6 6 6 7 7 7 7 7 7 7 6 5 5 4 4 4 4 4 4
7 8 8 7 6 6 6 5 5 5 5 5 4 4 4 4 4 4 5 5 5 6 5 5 5 5 5 5 6 6 7 7 7 7 6 6 7 8 6 4 3 4 3
10 9 8 8 8 8 7 7 6 5 5 5 5 4 4 4 4 4 4 5 5 5 5 6 5 5 5 10 11 8 6 6 6 5 5 5 7 9 10 10 9 6 4
10 10 10 10 9 9 9 8 7 6 6 6 5 5 5 5 5 5 5 5 4 5 5 5 5 5 6 11 11 11 6 5 5 4 4 4 4 6 4 7 9 9 9
9 9 8 8 7 8 7 7 7 7 7 6 6 6 6 5 5 5 5 4 4 4 4 4 4 4 5 9 10 10 6 4 4 3 3 2 3 2 3 3 4 4 4
7 7 7 7 8 9 9 9 8 7 7 7 6 6 6 6 6 5 5 4 4 3 3 3 3 4 3 6 8 8 3 3 3 2 2 2 2 4 5 3 3 3 3
4 5 6 6 8 8 9 9 8 8 8 7 7 6 6 6 6 5 5 3 4 3 3 3 2 2 2 3 6 7 2 2 1 2 2 4 3 4 4 2 1 1 2
4 6 7 7 7 9 9 9 8 8 7 6 6 6 6 6 6 5 4 4 4 4 3 2 1 1 1 2 2 5 2 2 1 0 1 2 5 4 4 2 1 1 0
5 6 6 6 6 8 9 8 8 6 6 7 7 6 6 5 5 5 4 4 5 4 3 2 1 1 1 1 1 1 2 3 2 1 1 3 5 4 4 3 2 3 3
4 4 6 6 5 6 8 8 7 7 8 7 7 6 6 5 5 6 6 4 4 3 3 3 2 2 1 2 3 2 2 1 1 2 3 4 4 3 3 3 3 3 1
4 5 6 6 6 6 6 6 7 8 8 8 7 6 6 5 5 4 5 5 5 4 4 4 3 3 2 2 2 2 2 2 1 1 2 3 3 2 2 2 2 1 1
4 5 6 6 7 6 6 6 8 9 8 7 7 6 6 6 5 5 5 5 5 6 6 5 4 4 4 5 7 4 3 3 3 2 1 0 1 1 1 1 1 1 1
4 5 5 6 6 7 7 7 8 9 9 7 7 6 5 5 5 4 3 7 8 10 11 9 7 6 8 7 8 8 7 7 6 2 1 2 2 2 2 2 2 2 2
Wind_Direction
249 21 57 85 97 88 109 129 133 134 138 136 154 172 198 201 205 212 219 218 218 214 211 221 219 211 219 225 221 221 228 235 219 239 272 269 246 242 242 237 239 243 240
200 156 95 84 92 97 95 97 99 97 123 152 153 159 159 174 189 197 206 220 225 226 220 224 225 218 225 231 226 215 220 226 187 194 241 288 300 266 241 234 237 246 243
196 186 152 119 104 95 93 97 90 80 68 92 114 94 86 67 62 28 320 319 288 257 241 236 232 228 221 231 232 221 223 235 219 199 208 237 252 289 287 254 247 251 246
187 179 166 142 123 107 92 87 81 70 53 58 100 141 163 187 199 328 344 357 10 358 335 297 261 247 238 243 246 234 228 229 236 217 223 232 233 252 287 279 268 260 260
183 176 168 147 122 106 93 83 77 63 51 56 79 105 120 153 45 36 30 21 20 16 6 358 344 307 276 265 262 254 238 231 237 226 214 231 239 231 251 272 270 294 277
172 160 145 131 115 99 90 86 80 62 49 56 61 81 97 89 75 39 22 12 12 13 11 8 4 347 328 306 289 273 258 252 248 245 222 211 218 220 233 256 261 263 276
164 158 154 149 138 122 105 94 91 73 57 61 58 61 72 78 78 52 36 23 16 10 4 10 9 1 351 345 340 350 343 321 277 269 259 248 248 244 238 258 272 268 281
169 165 163 155 147 136 124 113 103 91 73 69 62 54 57 64 59 50 53 46 33 14 5 14 18 15 12 15 24 41 36 40 41 31 22 21 9 350 305 266 270 278 274
172 165 159 154 150 141 135 129 118 102 85 79 77 62 57 63 63 54 50 45 30 31 28 28 30 26 27 31 42 54 49 55 52 47 49 51 33 26 14 4 320 258 269
167 163 161 158 152 142 131 121 117 112 98 83 80 81 64 63 65 63 54 47 37 36 37 39 39 39 37 38 52 57 54 64 56 53 58 54 38 37 30 26 24 17 249
175 172 165 157 147 137 133 127 122 115 103 92 84 80 70 66 66 63 54 48 45 42 46 48 51 50 45 43 56 60 59 66 61 54 61 57 49 49 38 36 37 32 31
177 170 163 155 153 151 145 140 135 126 119 110 99 89 80 74 70 65 56 55 56 51 52 55 59 58 54 52 60 65 62 66 64 58 59 54 55 53 42 42 41 34 26
177 170 168 173 172 166 159 153 147 139 129 119 110 98 88 83 78 73 67 64 65 61 59 61 65 62 60 62 64 71 71 68 65 62 63 58 61 59 49 48 44 34 33
185 183 187 188 182 174 168 161 155 146 138 129 121 113 106 102 95 88 78 72 71 69 66 68 71 71 70 68 71 74 75 72 65 59 57 55 62 69 62 54 45 46 47
200 198 196 192 183 177 173 166 160 154 145 137 132 129 123 114 105 95 85 77 74 73 69 71 73 81 84 81 81 77 79 76 68 55 46 48 59 68 69 67 55 54 56
211 206 199 191 189 185 178 170 166 160 149 146 146 142 136 126 116 108 98 89 80 73 68 63 62 63 79 94 93 90 77 73 70 60 45 46 47 53 55 59 57 60 67
210 205 201 197 193 186 176 175 168 155 153 155 155 154 149 140 133 124 114 104 95 87 76 64 61 60 78 90 92 91 86 77 69 62 49 42 40 47 44 49 47 42 49
208 207 199 191 181 170 165 158 154 157 160 162 164 163 157 149 141 133 128 119 106 98 86 73 65 61 73 91 96 97 87 80 70 61 56 43 11 30 81 68 47 33 25
204 197 185 172 162 163 159 153 156 160 165 171 173 171 164 158 153 151 145 133 123 112 101 91 78 67 58 88 105 106 95 81 60 39 35 26 346 11 68 82 53 26 2
168 157 146 144 156 160 154 156 163 169 180 179 174 168 165 163 162 159 149 137 135 132 122 106 91 75 32 80 112 117 115 98 68 27 8 5 356 4 38 105 81 359 327
143 142 147 155 163 158 156 163 170 184 180 166 161 162 164 163 159 152 147 145 141 135 132 128 106 59 18 29 99 135 142 153 147 62 341 324 343 355 359 27 172 292 32
138 146 150 155 156 160 161 169 183 178 159 158 161 163 163 163 158 155 155 153 151 153 161 161 192 251 307 322 302 175 171 169 166 222 264 290 325 346 354 357 327 359 52
153 153 154 155 162 170 171 178 180 161 159 161 166 166 165 166 163 167 168 162 165 170 180 183 208 233 235 272 279 274 271 242 187 233 272 304 330 3 360 343 360 36 54
170 163 160 169 180 182 184 182 166 163 163 169 172 169 170 173 174 176 177 176 181 185 189 197 212 223 232 239 245 257 276 278 273 270 296 324 338 359 335 348 10 15 279
176 175 181 188 191 183 186 178 168 166 170 173 175 177 178 178 182 187 194 192 199 192 192 202 201 202 224 234 226 212 213 215 229 223 190 245 300 304 297 285 276 275 300
182 187 193 194 190 185 188 182 176 174 174 179 183 183 182 183 184 186 205 224 216 223 223 216 209 221 230 241 239 239 242 247 251 225 198 232 241 249 256 263 270 264 260